Location: Bu�n Treun
(12.1333°N, 108.3167°E)
Time: 09:26:39
(UTC+00:00)

BEESAT - Pass Details

Date: 28 September 2021
Orbit: 699 x 709 km, 98.6° (Epoch: 16 October)

Event Time Altitude Azimuth Distance (km) Brightness Sun altitude
Rises 10:57:49 0° 46° (NE) 3,072 ? -5.5°
Reaches altitude 10° 11:01:35 10° 78° (ENE) 2,155 ? -6.4°
Maximum altitude 11:03:19 12° 99° (E) 2,027 ? -6.8°
Drops below altitude 10° 11:05:04 10° 121° (ESE) 2,156 ? -7.2°
Sets 11:08:49 0° 152° (SSE) 3,075 ? -8.2°
